Probability
0 0 0 0 0 0 0 0 0 0 0 0 0 0 0 0 0 0 0 0 0 0 0 0 0 0 0 0 0 0 0 0 0 0 0 0 0 0 0 0 0 0 0 0 0 0 0 0 0
0 0 0 0 0 0 0 0 0 0 0 0 0 0 0 0 0 0 0 0 0 0 0 0 0 0 0 0 0 0 0 0 0 0 0 0 0 0 0 0 0 0 0 0 0 0 0 0 0
0 0 0 0 0 0 0 0 0 0 0 0 0 0 0 0 0 0 0 0 0 0 0 0 0 0 0 0 0 0 0 0 0 0 0 0 0 0 0 0 0 0 0 0 0 0 0 0 0
0 0 0 0 0 0 0 0 0 0 0 0 0 0 0 0 0 0 0 0 0 0 0 0 0 0 0 0 0 0 0 0 0 0 0 0 0 0 0 0 0 0 0 0 0 0 0 0 0
0 0 0 0 0 0 0 0 0 0 0 0 0 0 0 0 0 0 0 0 0 0 0 0 0 0 0 0 0 0 0 0 0 0 0 0 0 0 0 0 0 0 0 0 0 0 0 0 0
0 0 0 0 0 0 0 0 0 0 0 0 0 0 0 0 0 0 0 0 0 0 0 0 0 0 0 0 0 0 0 0 0 0 0 0 0 0 0 0 0 0 0 0 0 0 0 0 0
0 0 0 0 0 0 0 0 0 0 0 0 0 0 0 0 0 0 0 0 0 0 0 0 0 0 0 0 0 0 0 0 0 0 0 0 0 0 0 0 0 0 0 0 0 0 0 0 0
0 0 0 0 0 0 0 0 0 0 0 0 0 0 0 0 0 0 0 0 0 0 0 0 0 0 0 0 0 0 0 0 0 0 0 0 0 0 0 0 0 0 0 0 0 0 0 0 0
0 0 0 0 0 0 0 0 0 0 0 0 0 0 0 0 0 0 0 0 0 0 0 0 0 0 0 0 0 0 0 0 0 0 0 0 0 0 0 0 0 0 0 0 0 0 0 0 0
0 0 0 0 0 0 0 0 0 0 0 0 0 0 0 0 0 0 0 0 0 0 0 0 0 0 0 0 0 0 0 0 0 0 0 0 0 0 0 0 0 0 0 0 0 0 0 0 0
0 0 0 0 0 0 0 0 0 0 0 0 0 0 0 0 0 0 0 0 0 0 0 0 0 0 0 0 0 0 0 0 0 0 0 0 0 0 0 0 0 0 0 0 0 0 0 0 0
0 0 0 0 0 0 0 0 0 0 0 0 0 0 0 0 0 0 0 0 0 0 0 0 0 0 0 0 0 0 0 0 0 0 0 0 0 0 0 0 0 0 0 0 0 0 0 0 0
0 0 0 0 0 0 0 0 0 0 0 0 0 0 0 0 0 0 0 0 0 0 0 0 0 0 0 0 0 0 0 0 0 0 0 0 0 0 0 0 0 0 0 0 0 0 0 0 0
0 0 0 0 0 0 0 0 0 0 0 0 0 0 0 0 0 0 0 0 0 0 0 0 0 0 0 0 0 0 0 0 0 0 0 0 0 0 0 0 0 0 0 0 0 0 0 0 0
0 0 0 0 0 0 0 0 0 0 0 0 0 0 0 0 0 0 0 0 0 0 0 0 0 0 0 0 0 0 0 0 0 0 0 0 0 0 0 0 0 0 0 0 0 0 0 0 0
0 0 0 0 0 0 0 0 0 0 0 0 0 0 0 0 0 0 0 0 0 0 0 0 0 0 0 0 0 0 0 0 0 0 0 0 0 0 0 0 0 0 0 0 0 0 0 0 0
0 0 0 0 0 0 0 0 0 0 0 0 0 0 0 0 0 0 0 0 0 0 0 1 2 2 2 1 0 0 0 0 0 0 0 0 0 0 0 0 0 0 0 0 0 0 0 0 0
0 0 0 0 0 0 0 0 0 0 0 0 0 0 0 0 0 0 0 0 0 0 1 4 8 10 9 5 3 2 1 0 0 0 0 0 0 0 0 0 0 0 0 0 0 0 0 0 0
0 0 0 0 0 0 0 0 0 0 0 0 0 0 0 0 0 0 0 0 0 1 4 10 19 25 25 18 10 5 2 1 0 0 0 0 0 0 0 0 0 0 0 0 0 0 0 0 0
0 0 0 0 0 0 0 0 0 0 0 0 0 0 0 0 0 0 0 1 1 3 9 20 31 42 44 35 20 9 3 1 0 0 0 0 0 0 0 0 0 0 0 0 0 0 0 0 0
0 0 0 0 0 0 0 0 0 0 0 0 0 0 0 0 0 0 1 3 4 7 19 34 47 57 58 49 34 18 9 4 1 0 0 0 0 0 0 0 0 0 0 0 0 0 0 0 0
0 0 0 0 0 0 0 0 0 0 0 0 0 0 0 0 0 0 2 6 10 19 33 51 63 67 63 55 43 29 18 10 3 0 0 0 0 0 0 0 0 0 0 0 0 0 0 0 0
0 0 0 0 0 0 0 0 0 0 0 0 0 0 0 1 1 1 3 12 24 37 51 65 73 69 58 47 37 26 18 9 3 0 0 0 0 0 0 0 0 0 0 0 0 0 0 0 0
0 0 0 0 0 0 0 0 0 0 0 0 0 0 0 0 1 1 5 16 31 46 56 63 64 56 40 27 20 14 8 4 1 0 0 0 0 0 0 0 0 0 0 0 0 0 0 0 0
0 0 0 0 0 0 0 0 0 0 0 0 0 0 0 0 0 1 5 13 23 32 39 41 40 33 19 10 7 5 2 1 0 0 0 0 0 0 0 0 0 0 0 0 0 0 0 0 0
0 0 0 0 0 0 0 0 0 0 0 0 0 0 0 0 0 0 2 5 9 13 16 17 18 15 8 3 1 1 0 0 0 0 0 0 0 0 0 0 0 0 0 0 0 0 0 0 0
0 0 0 0 0 0 0 0 0 0 0 0 0 0 0 0 0 0 0 1 2 3 4 5 7 6 3 1 0 0 0 0 0 0 0 0 0 0 0 0 0 0 0 0 0 0 0 0 0
0 0 0 0 0 0 0 0 0 0 0 0 0 0 0 0 0 0 0 0 0 1 1 2 2 1 1 0 0 0 0 0 0 0 0 0 0 0 0 0 0 0 0 0 0 0 0 0 0
0 0 0 0 0 0 0 0 0 0 0 0 0 0 0 0 0 0 0 0 0 0 0 0 0 0 0 0 0 0 0 0 0 0 0 0 0 0 0 0 0 0 0 0 0 0 0 0 0
0 0 0 0 0 0 0 0 0 0 0 0 0 0 0 0 0 0 0 0 0 0 0 0 0 0 0 0 0 0 0 0 0 0 0 0 0 0 0 0 0 0 0 0 0 0 0 0 0
Wind_Speed
4 2 3 4 7 6 2 2 2 1 3 2 3 6 6 4 1 2 2 9 9 10 7 10 12 12 11 11 11 11 11 11 11 12 11 11 10 10 9 9 9 9 9 9 8 9 9 8 8
1 1 4 6 7 3 2 2 2 1 4 4 4 4 4 3 3 5 4 6 10 11 7 8 13 12 11 11 11 11 11 11 11 11 11 11 10 9 9 9 9 9 8 8 9 9 9 8 8
1 2 4 5 4 3 2 2 2 2 3 2 3 4 3 3 4 5 5 10 10 9 6 8 14 12 12 11 11 10 10 10 10 10 10 10 10 9 8 8 8 8 8 8 8 8 9 8 7
2 4 5 5 2 2 3 2 3 4 1 3 4 4 3 2 6 5 10 12 10 8 6 8 14 13 12 11 11 10 10 10 10 10 10 10 9 8 8 7 7 7 7 7 8 8 9 8 8
4 4 6 4 3 4 3 2 4 4 3 2 3 4 2 3 6 11 12 11 10 8 6 7 13 13 12 11 11 10 10 10 10 10 10 10 9 8 7 7 6 6 6 6 7 8 8 8 8
5 5 5 2 6 6 3 2 4 3 3 3 4 3 2 2 7 10 10 9 9 9 7 7 13 13 12 11 11 10 10 10 10 10 10 10 9 8 7 6 5 5 4 5 6 7 8 8 8
4 5 4 1 3 5 3 1 4 4 4 4 6 5 2 3 5 8 7 7 7 7 7 5 6 9 12 12 11 11 10 10 10 10 10 10 9 8 7 6 5 4 3 3 5 6 7 7 7
4 5 4 1 1 4 3 1 1 5 4 4 5 7 5 6 6 7 6 6 6 5 6 5 5 5 5 7 11 12 11 10 10 10 10 10 9 7 7 6 5 4 3 3 4 5 6 7 7
4 5 2 2 2 3 3 2 1 2 5 3 3 5 5 11 10 8 5 4 5 6 5 5 5 5 5 5 8 9 11 11 10 9 10 8 4 3 3 4 5 4 3 2 3 4 6 7 6
4 3 4 4 3 3 3 1 2 3 3 2 2 3 8 13 12 10 8 9 9 9 8 6 6 6 5 6 4 3 4 5 5 4 5 4 3 2 3 3 6 5 3 2 3 4 6 5 3
2 4 3 3 3 2 3 2 2 7 4 7 9 10 13 12 12 12 11 10 10 8 8 8 7 6 6 4 4 3 2 3 4 5 5 4 3 2 2 0 1 1 2 3 3 4 2 2 2
1 1 2 3 2 2 3 2 0 4 5 6 10 16 16 16 16 15 14 11 8 7 9 9 8 6 6 4 4 4 3 3 3 4 5 4 3 2 2 1 1 1 1 1 2 1 1 1 2
0 1 2 3 4 3 4 4 2 2 7 2 9 13 16 16 15 13 11 10 8 9 10 9 10 8 6 5 4 5 4 4 4 4 5 5 4 3 2 2 1 1 1 0 1 1 1 1 3
2 1 2 3 3 3 3 3 2 5 6 4 10 12 13 14 14 11 10 10 11 11 11 10 11 10 8 6 5 5 4 4 4 4 5 6 4 4 3 3 2 2 2 2 1 0 1 2 3
1 1 3 4 4 4 3 3 2 5 5 2 6 8 9 9 9 11 11 11 12 11 11 11 11 10 10 8 7 5 5 5 5 4 5 6 5 4 4 3 3 3 3 2 1 1 2 2 3
3 3 2 3 4 5 3 3 2 5 5 2 2 3 6 8 9 10 9 9 9 9 10 12 11 12 11 9 7 5 5 5 5 5 5 6 6 6 4 4 4 3 3 3 2 2 2 2 3
5 2 2 4 2 4 3 4 4 5 5 5 4 4 5 6 9 10 10 11 11 11 11 12 11 12 12 10 7 5 5 5 5 5 5 6 7 7 5 4 4 3 2 2 3 2 2 3 3
1 1 2 4 3 3 2 4 6 6 5 5 6 6 6 7 9 10 11 13 13 12 12 12 12 10 10 7 5 4 4 4 4 4 5 7 6 7 6 4 4 3 2 3 3 3 2 2 3
2 2 4 5 2 1 3 4 6 7 8 9 8 8 9 10 9 9 10 12 13 13 14 14 13 11 9 7 6 5 5 4 4 4 5 6 6 7 6 5 5 4 4 4 4 3 3 2 3
2 2 4 4 2 1 3 3 3 6 7 8 9 11 11 13 12 9 9 10 14 16 16 15 14 12 11 8 6 3 3 2 2 2 4 5 6 6 6 6 5 5 4 4 5 4 3 2 3
2 4 4 4 2 3 3 4 4 4 5 9 10 10 11 13 15 13 9 8 10 13 14 12 12 10 9 7 4 3 3 2 2 3 3 4 5 5 5 6 5 5 6 6 6 6 6 4 3
5 5 4 2 1 3 2 3 4 6 8 12 15 15 15 16 15 12 9 5 6 8 8 8 9 9 8 8 5 5 4 4 4 3 2 3 4 5 5 5 6 5 5 5 6 6 5 5 4
3 3 1 0 2 1 1 2 5 6 9 13 15 15 16 16 14 13 10 5 2 2 5 7 9 8 7 6 5 3 3 3 2 2 3 3 3 4 5 5 5 5 5 6 6 6 6 5 5
3 4 4 4 4 1 3 3 3 4 8 13 14 15 15 15 14 13 11 9 8 8 8 10 11 9 5 4 2 4 5 4 3 3 3 2 1 2 3 4 4 5 4 5 6 7 8 7 6
7 5 4 5 3 4 1 3 1 3 7 9 13 14 14 13 12 12 12 10 9 9 9 9 9 7 4 2 3 4 5 5 4 3 3 2 1 1 2 3 3 3 4 4 5 5 6 7 7
4 2 2 3 3 3 1 2 2 3 6 8 9 11 12 12 11 10 9 8 7 8 8 8 6 4 3 3 4 3 4 3 2 3 3 3 2 2 2 2 2 2 3 3 4 4 5 5 7
5 3 1 1 2 2 2 1 1 9 13 14 14 15 14 13 11 10 7 6 6 6 6 5 3 2 2 3 3 3 3 3 2 2 2 2 2 1 2 2 2 2 2 2 3 3 4 5 6
3 1 4 2 1 2 2 2 6 13 16 17 16 16 15 13 12 9 6 5 4 5 4 5 2 2 2 2 2 2 2 2 2 3 3 2 2 2 2 2 2 2 2 2 2 2 2 4 4
6 6 4 1 1 1 1 2 6 9 12 14 15 14 14 13 11 8 6 5 4 5 4 3 2 1 2 3 3 4 3 3 3 2 2 2 2 2 2 2 2 2 2 2 2 2 2 3 2
3 3 3 2 3 1 0 2 6 9 10 11 13 14 14 13 10 7 6 7 6 5 3 2 2 1 2 3 4 4 4 4 3 2 1 1 2 2 2 2 2 2 2 2 2 2 2 2 2
Wind_Direction
336 48 87 56 51 50 37 323 278 350 52 39 75 93 102 97 125 152 120 143 136 144 156 155 152 147 141 138 137 135 133 132 130 128 124 120 114 111 106 100 97 93 89 87 90 94 95 94 92
319 94 58 57 76 67 311 289 258 205 136 143 87 80 81 75 88 111 127 147 142 147 150 153 156 151 147 144 142 140 139 138 136 135 131 125 119 115 111 105 100 95 90 87 86 89 91 92 90
288 56 73 66 88 155 213 228 217 104 135 115 74 59 88 123 134 150 151 141 141 145 144 160 159 156 153 151 148 146 144 142 141 140 136 129 124 119 116 111 104 99 93 87 82 81 83 82 79
81 47 53 66 45 242 237 233 174 133 125 66 95 73 58 92 152 151 137 141 143 143 144 165 162 160 158 157 155 153 150 148 146 144 139 134 130 127 123 117 112 106 98 89 79 74 74 71 66
61 73 58 43 332 295 264 212 168 149 141 90 99 96 44 13 113 129 139 146 147 145 150 167 165 165 164 164 163 160 158 156 154 149 143 141 139 135 132 127 122 116 105 91 76 69 68 64 57
56 65 74 17 318 314 305 195 156 139 123 113 108 98 50 106 126 141 145 148 151 153 156 167 171 169 170 170 169 167 166 164 160 155 149 147 144 141 141 139 136 129 112 91 72 64 62 58 51
96 86 108 117 326 326 327 72 157 146 142 161 135 109 108 164 157 144 142 138 146 156 158 166 169 171 174 175 174 173 172 170 164 159 154 153 149 148 150 150 151 145 124 94 71 62 60 56 50
115 100 96 99 339 292 305 326 194 149 152 131 126 143 182 190 157 130 122 129 145 157 163 164 164 163 166 173 178 176 175 174 168 163 161 159 157 158 161 160 164 163 149 108 74 64 64 60 55
85 78 126 197 201 266 312 353 15 104 116 129 160 174 186 147 141 128 124 138 162 173 172 167 166 163 161 168 183 178 177 177 172 168 169 158 139 140 152 167 179 176 159 119 78 65 67 62 49
81 119 205 212 199 239 305 280 193 112 118 128 97 102 127 143 156 162 171 177 185 188 185 177 175 169 166 177 170 161 162 164 156 150 149 132 132 145 153 200 194 184 160 105 64 51 63 66 45
114 170 223 248 239 262 301 302 169 140 191 201 182 162 150 161 171 183 188 189 194 189 189 186 182 176 174 173 158 154 146 146 148 150 144 139 138 143 135 112 294 30 67 51 35 43 53 67 75
104 237 217 268 290 291 274 293 117 187 238 231 181 163 163 174 184 192 195 196 188 181 192 187 185 182 183 175 167 161 158 159 160 160 154 148 152 162 162 169 184 71 59 43 18 20 25 76 103
51 276 262 294 309 284 284 279 272 285 309 187 150 164 176 185 194 199 200 196 188 190 194 188 184 184 182 178 177 174 175 173 169 164 166 164 167 179 184 188 189 186 154 162 318 337 342 127 135
260 292 324 345 348 346 313 300 23 335 332 136 158 180 190 196 198 199 201 199 197 198 195 188 186 186 182 185 186 182 180 175 170 175 178 177 178 182 188 197 202 203 184 187 216 256 128 133 133
301 17 21 15 359 348 339 346 35 324 341 147 182 195 203 213 211 212 212 210 206 202 195 191 189 185 186 189 192 187 183 176 181 184 184 186 187 191 192 198 212 209 174 170 161 109 98 113 119
38 49 3 335 4 346 26 295 325 347 16 5 282 246 229 227 226 225 222 221 214 204 198 197 195 189 190 191 191 188 184 185 188 184 186 193 196 196 192 203 221 205 165 159 155 136 116 127 138
33 39 324 312 6 6 36 285 311 356 15 357 336 307 274 256 243 233 224 221 216 209 202 199 199 190 191 189 186 188 184 192 190 185 189 197 200 199 195 209 221 196 172 170 171 152 148 157 158
256 251 271 283 316 7 339 288 322 359 14 358 342 328 311 287 264 249 232 223 217 211 204 202 200 193 182 174 169 175 187 197 193 193 196 196 200 199 197 206 216 192 184 186 175 160 144 142 148
185 215 260 264 281 326 286 301 334 2 20 7 354 341 328 309 288 274 249 228 218 210 204 202 197 189 175 171 176 182 198 197 201 203 199 197 196 194 196 204 202 192 197 199 175 151 145 128 129
193 244 267 284 331 307 304 312 359 30 28 12 1 350 337 327 320 301 272 239 220 213 206 201 197 188 183 184 174 162 153 178 198 200 200 199 194 190 197 197 195 193 192 189 179 157 149 149 157
251 224 243 261 346 25 349 333 6 357 6 8 6 353 344 337 326 315 296 255 227 216 206 196 190 179 172 159 137 113 104 102 146 194 205 202 194 193 197 197 194 192 188 193 188 176 165 164 176
278 271 245 239 35 304 26 296 319 338 345 1 358 354 348 342 335 327 318 291 242 219 195 179 163 148 142 142 155 164 173 193 202 189 191 190 191 194 200 199 196 193 191 193 193 183 174 161 170
282 330 13 148 163 314 340 208 304 348 355 348 345 346 345 344 343 345 347 344 1 93 116 117 107 105 115 128 146 169 200 211 155 146 176 188 193 198 201 201 197 197 197 198 192 184 183 178 174
348 25 45 46 79 254 241 173 319 1 342 331 336 340 342 343 347 354 2 23 45 63 82 94 97 89 91 104 136 204 205 188 165 171 178 183 189 207 208 201 200 199 197 199 197 192 190 192 185
30 46 10 351 9 249 268 131 85 352 337 327 328 331 335 341 349 356 6 20 41 57 67 77 84 86 86 129 192 207 196 185 181 174 179 173 175 205 216 199 200 200 201 197 189 191 197 194 194
353 80 156 244 247 286 347 161 151 8 337 329 328 330 336 345 348 354 6 19 33 52 61 65 70 87 121 174 191 180 174 170 164 166 164 172 183 199 194 185 189 195 192 188 184 192 197 198 204
10 4 310 219 272 265 285 56 355 358 354 350 348 348 343 342 346 353 4 24 38 46 58 63 73 103 156 170 151 142 143 141 148 148 143 150 163 164 143 137 145 158 169 178 175 190 197 194 204
44 3 36 37 298 269 304 40 358 347 344 342 345 344 338 339 346 351 357 15 35 55 49 45 52 122 142 125 112 115 119 126 129 123 124 131 130 115 115 109 110 107 117 142 158 173 193 196 202
1 15 13 330 236 228 259 58 13 342 335 338 341 342 340 340 345 350 1 17 23 40 45 17 345 89 104 104 100 95 94 103 104 103 119 133 127 132 131 132 127 120 115 123 141 161 172 189 200
47 20 2 338 311 304 184 53 5 344 343 350 350 350 349 349 355 5 15 28 27 26 24 354 311 99 116 114 98 97 99 100 101 102 123 144 150 154 157 152 150 150 147 145 149 164 175 184 197